STARLINK-32141, 60290

Orbit data source: Space-Track

STARLINK-32141, 60290 is a payload satellite owned by SpaceX/Seattle (US) in LEO that was launched on Sun, 28 Jul 2024 UTC via an FALCON 9 launch vehicle from the Air Force Eastern Test Range (AFETR). Payload-class satellites include a variety of spacecraft equipped with specific instruments for various scientific and technological missions. These include communications satellites like Starlink; space stations such as the ISS; scientific satellites like the Hubble; Earth observation satellites from companies like Planet Labs, Umbra, and HawkEye 360; GPS; miniature CubeSats for education and research; and military/defense satellites.

Loading next visibility...
Identifier
60290, 2024-132N
Orbit
LEO
Country
Flag of USUS
Related business
Manufacturer
SpaceX/Seattle
Mission
Operational Commercial Communications
Bus & Motor
STARLINK V2M, Unknown motor
Mass
730 kg wet, ~700 kg dry
Launch date (UTC)
2024-07-28 (1 year ago)
Launch vehicle
FALCON 9
Launch site
Air Force Eastern Test Range (AFETR)
Object type
Payload
Rocket body
Debris
Shape & HBR
Box + 2 Pan, 17.7 m
Radar Cross Section
33.884 m², Large (>1 m²)

Expand to show TLE details & history
Last TLE update: 1 day ago

TLE from 1 day ago
0 STARLINK-32141
1 60290U 24132N   25306.40852867  .00023002  00000-0  78588-3 0  9991
2 60290  53.1597 283.6000 0001731  87.1222 272.9977 15.30219237 72074
Epoch: 2025-11-02T09:48Z
TLE epoch observation values (Epoch: 2025-11-02T09:48:16.877Z)
Latitude
0.00001°
Longitude
94.605°
Altitude
475.995 km
Speed
7.629 km/s
True Right ascension
18h 54m 24s
True Declination
0° 00' 00"
Sunlit
Object was in daylight at epoch
Visualization orbit readout
Latitude
Unknown
Longitude
Unknown
Altitude
Unknown
Speed
Unknown
Apparent Right ascension
Unknown
Apparent Declination
Unknown
Sunlit
N/A
Visualization observer readout
Local Sidereal Time
16:26:22
Azimuth
Unknown
Elevation
Unknown
Doppler factor
Unknown
Orbital elements
Apogee altitude
476.6 km
Perigee altitude
474.228 km
Semi-major axis
6,853.551 km
Eccentricity
0.00017
Inclination
53.1597°
RAAN
283.6°
Arg. of periapsis
87.1222°
True anomaly
272.97789°
Mean anomaly
272.9977°
Eccentric anomaly
272.9878°
Mean motion
3.82534 °/min
Orbital period
94.11 mins
BSTAR
0.00078588
Loading maneuver chart data...
Computing Atmospheric mass density...
Loading historical data...
Loading historical data...
Loading historical data...
Loading historical data...
Loading historical data...
Loading historical data...
Loading historical data...

Documentation

Showing up to 5 results
|